| time (UTC) | temp F | wind direction | speed MPH | gust MPH | rain 1hr in | rain 24hr in | rain mn in | humidity % | barometer mb |
| 20260901211103 | 68 | 247 | 5.0 | 12.0 | 0.00 | 0.00 | 0.00 | 53 | 1011.0 |
| 20260901210603 | 68 | 255 | 13.0 | 21.0 | 0.00 | 0.00 | 0.00 | 51 | 1011.2 |
| 20260901205603 | 68 | 249 | 14.0 | 24.0 | 0.00 | 0.00 | 0.00 | 43 | 1011.2 |
| 20260901205103 | 69 | 248 | 12.0 | 21.0 | 0.00 | 0.00 | 0.00 | 41 | 1011.2 |
| 20260901204602 | 69 | 280 | 9.0 | 12.0 | 0.00 | 0.00 | 0.00 | 41 | 1011.0 |
| 20260901204102 | 69 | 254 | 5.0 | 8.0 | 0.00 | 0.00 | 0.00 | 45 | 1010.9 |
| 20260901203103 | 70 | 341 | 0.0 | 2.0 | 0.00 | 0.00 | 0.00 | 43 | 1010.2 |
| 20260901202603 | 70 | 341 | 2.0 | 3.0 | 0.00 | 0.00 | 0.00 | 42 | 1010.1 |
| 20260901201603 | 71 | 342 | 2.0 | 3.0 | 0.00 | 0.00 | 0.00 | 41 | 1009.7 |
| 20260901201103 | 72 | 341 | 1.0 | 5.0 | 0.00 | 0.00 | 0.00 | 41 | 1009.7 |
| 20260901200603 | 73 | 335 | 2.0 | 7.0 | 0.00 | 0.00 | 0.00 | 40 | 1009.5 |
| 20260901194602 | 73 | 95 | 2.0 | 3.0 | 0.00 | 0.00 | 0.00 | 40 | 1009.2 |
| 20260901194102 | 73 | 97 | 3.0 | 3.0 | 0.00 | 0.00 | 0.00 | 40 | 1008.9 |
| 20260901193603 | 73 | 110 | 2.0 | 3.0 | 0.00 | 0.00 | 0.00 | 39 | 1008.9 |
| 20260901193103 | 73 | 110 | 3.0 | 5.0 | 0.00 | 0.00 | 0.00 | 38 | 1009.2 |
| 20260901192602 | 73 | 114 | 5.0 | 6.0 | 0.00 | 0.00 | 0.00 | 38 | 1009.2 |
| 20260901192103 | 74 | 131 | 5.0 | 6.0 | 0.00 | 0.00 | 0.00 | 38 | 1009.3 |
| 20260901191603 | 73 | 198 | 2.0 | 3.0 | 0.00 | 0.00 | 0.00 | 36 | 1009.2 |
| 20260901191103 | 73 | 198 | 3.0 | 3.0 | 0.00 | 0.00 | 0.00 | 36 | 1009.2 |
| 20260901190603 | 73 | 198 | 3.0 | 5.0 | 0.00 | 0.00 | 0.00 | 36 | 1009.2 |
| 20260901184103 | 71 | 263 | 0.0 | 0.0 | 0.00 | 0.00 | 0.00 | 37 | 1009.5 |
| 20260901183603 | 71 | 263 | 0.0 | 0.0 | 0.00 | 0.00 | 0.00 | 38 | 1009.6 |
| 20260901183103 | 70 | 263 | 0.0 | 1.0 | 0.00 | 0.00 | 0.00 | 42 | 1009.4 |
| 20260901182603 | 69 | 263 | 1.0 | 9.0 | 0.00 | 0.00 | 0.00 | 41 | 1009.8 |
| 20260901182103 | 69 | 286 | 3.0 | 12.0 | 0.00 | 0.00 | 0.00 | 41 | 1009.8 |
| 20260901181603 | 69 | 276 | 3.0 | 6.0 | 0.00 | 0.00 | 0.00 | 42 | 1009.6 |
| 20260901181104 | 69 | 294 | 1.0 | 7.0 | 0.00 | 0.00 | 0.00 | 43 | 1009.6 |
| 20260901180602 | 69 | 287 | 9.0 | 15.0 | 0.00 | 0.00 | 0.00 | 42 | 1009.8 |
| 20260901180103 | 70 | 268 | 13.0 | 14.0 | 0.00 | 0.00 | 0.00 | 37 | 1009.6 |
| 20260901175603 | 72 | 270 | 10.0 | 14.0 | 0.00 | 0.00 | 0.00 | 40 | 1009.1 |
| 20260901175103 | 74 | 280 | 7.0 | 12.0 | 0.00 | 0.00 | 0.00 | 35 | 1008.7 |
| 20260901174603 | 74 | 88 | 0.0 | 3.0 | 0.00 | 0.00 | 0.00 | 34 | 1008.6 |
| 20260901174103 | 74 | 88 | 2.0 | 5.0 | 0.00 | 0.00 | 0.00 | 34 | 1008.4 |
| 20260901173103 | 74 | 83 | 5.0 | 7.0 | 0.00 | 0.00 | 0.00 | 34 | 1008.2 |
| 20260901172603 | 74 | 74 | 6.0 | 9.0 | 0.00 | 0.00 | 0.00 | 35 | 1008.1 |
| 20260901171603 | 74 | 99 | 5.0 | 7.0 | 0.00 | 0.00 | 0.00 | 34 | 1008.2 |
| 20260901171102 | 73 | 105 | 5.0 | 7.0 | 0.00 | 0.00 | 0.00 | 34 | 1008.3 |
| 20260901165603 | 73 | 108 | 5.0 | 9.0 | 0.00 | 0.00 | 0.00 | 34 | 1008.0 |
| 20260901165103 | 73 | 110 | 6.0 | 10.0 | 0.00 | 0.00 | 0.00 | 35 | 1008.0 |
| 20260901164602 | 73 | 113 | 4.0 | 7.0 | 0.00 | 0.00 | 0.00 | 35 | 1008.0 |
| 20260901164103 | 74 | 115 | 6.0 | 8.0 | 0.00 | 0.00 | 0.00 | 35 | 1007.6 |
| 20260901163603 | 73 | 112 | 6.0 | 10.0 | 0.00 | 0.00 | 0.00 | 35 | 1007.9 |
| 20260901163103 | 73 | 116 | 6.0 | 12.0 | 0.00 | 0.00 | 0.00 | 35 | 1007.9 |
| 20260901161602 | 71 | 134 | 9.0 | 12.0 | 0.00 | 0.00 | 0.00 | 36 | 1008.2 |
| 20260901160103 | 69 | 119 | 7.0 | 12.0 | 0.00 | 0.00 | 0.00 | 38 | 1008.0 |
| 20260901155603 | 69 | 123 | 9.0 | 12.0 | 0.00 | 0.00 | 0.00 | 39 | 1008.1 |
| 20260901155103 | 68 | 130 | 7.0 | 10.0 | 0.00 | 0.00 | 0.00 | 39 | 1008.2 |
| 20260901154603 | 67 | 142 | 5.0 | 12.0 | 0.00 | 0.00 | 0.00 | 39 | 1008.4 |
| 20260901154102 | 67 | 122 | 6.0 | 10.0 | 0.00 | 0.00 | 0.00 | 40 | 1008.5 |
| 20260901153103 | 66 | 133 | 5.0 | 9.0 | 0.00 | 0.00 | 0.00 | 42 | 1008.5 |
| 20260901152603 | 66 | 130 | 6.0 | 9.0 | 0.00 | 0.00 | 0.00 | 42 | 1008.5 |
| 20260901152102 | 65 | 141 | 8.0 | 12.0 | 0.00 | 0.00 | 0.00 | 43 | 1008.7 |
| 20260901151602 | 64 | 160 | 6.0 | 12.0 | 0.00 | 0.00 | 0.00 | 45 | 1008.8 |
| 20260901151103 | 64 | 128 | 9.0 | 12.0 | 0.00 | 0.00 | 0.00 | 45 | 1008.6 |
| 20260901150603 | 63 | 142 | 7.0 | 12.0 | 0.00 | 0.00 | 0.00 | 46 | 1008.6 |
| 20260901150104 | 63 | 147 | 5.0 | 10.0 | 0.00 | 0.00 | 0.00 | 47 | 1008.7 |
| 20260901145603 | 62 | 150 | 6.0 | 9.0 | 0.00 | 0.00 | 0.00 | 48 | 1008.7 |
| 20260901145103 | 61 | 139 | 5.0 | 7.0 | 0.00 | 0.00 | 0.00 | 51 | 1008.8 |
| 20260901144603 | 60 | 123 | 2.0 | 3.0 | 0.00 | 0.00 | 0.00 | 52 | 1008.8 |
| 20260901144102 | 59 | 123 | 2.0 | 3.0 | 0.00 | 0.00 | 0.00 | 52 | 1009.1 |
| 20260901143603 | 59 | 123 | 2.0 | 5.0 | 0.00 | 0.00 | 0.00 | 52 | 1009.1 |
| 20260901142602 | 59 | 121 | 5.0 | 7.0 | 0.00 | 0.00 | 0.00 | 53 | 1009.0 |
| 20260901141603 | 59 | 92 | 2.0 | 3.0 | 0.00 | 0.00 | 0.00 | 52 | 1008.9 |
| 20260901141102 | 59 | 92 | 3.0 | 6.0 | 0.00 | 0.00 | 0.00 | 52 | 1008.7 |
| 20260901140603 | 59 | 80 | 5.0 | 7.0 | 0.00 | 0.00 | 0.00 | 51 | 1008.4 |
| 20260901140103 | 59 | 86 | 5.0 | 6.0 | 0.00 | 0.00 | 0.00 | 51 | 1008.6 |
| 20260901135603 | 59 | 109 | 3.0 | 6.0 | 0.00 | 0.00 | 0.00 | 51 | 1008.7 |
| 20260901135103 | 59 | 109 | 5.0 | 7.0 | 0.00 | 0.00 | 0.00 | 51 | 1008.7 |
| 20260901134602 | 59 | 115 | 6.0 | 10.0 | 0.00 | 0.00 | 0.00 | 52 | 1008.7 |
| 20260901134103 | 59 | 111 | 6.0 | 9.0 | 0.00 | 0.00 | 0.00 | 52 | 1008.8 |
| 20260901133103 | 58 | 131 | 6.0 | 10.0 | 0.00 | 0.00 | 0.00 | 53 | 1009.1 |
| 20260901132603 | 58 | 120 | 6.0 | 7.0 | 0.00 | 0.00 | 0.00 | 53 | 1009.2 |
| 20260901132103 | 58 | 127 | 6.0 | 7.0 | 0.00 | 0.00 | 0.00 | 52 | 1009.2 |
| 20260901131603 | 58 | 110 | 3.0 | 5.0 | 0.00 | 0.00 | 0.00 | 52 | 1009.1 |
| 20260901131103 | 58 | 108 | 5.0 | 7.0 | 0.00 | 0.00 | 0.00 | 51 | 1008.7 |
| 20260901130603 | 58 | 122 | 7.0 | 10.0 | 0.00 | 0.00 | 0.00 | 51 | 1008.4 |
| 20260901125603 | 58 | 117 | 6.0 | 7.0 | 0.00 | 0.00 | 0.00 | 51 | 1008.5 |
| 20260901124603 | 59 | 141 | 7.0 | 8.0 | 0.00 | 0.00 | 0.00 | 51 | 1008.6 |
| 20260901124103 | 58 | 141 | 7.0 | 9.0 | 0.00 | 0.00 | 0.00 | 51 | 1008.6 |
| 20260901123603 | 57 | 142 | 9.0 | 10.0 | 0.00 | 0.00 | 0.00 | 53 | 1009.0 |
| 20260901123102 | 57 | 135 | 5.0 | 9.0 | 0.00 | 0.00 | 0.00 | 53 | 1009.0 |
| 20260901122602 | 58 | 125 | 5.0 | 6.0 | 0.00 | 0.00 | 0.00 | 52 | 1008.6 |
| 20260901122103 | 58 | 124 | 5.0 | 6.0 | 0.00 | 0.00 | 0.00 | 52 | 1008.6 |
| 20260901121602 | 58 | 117 | 3.0 | 5.0 | 0.00 | 0.00 | 0.00 | 53 | 1008.5 |
| 20260901121103 | 58 | 115 | 3.0 | 3.0 | 0.00 | 0.00 | 0.00 | 52 | 1008.6 |
| 20260901120603 | 58 | 118 | 5.0 | 6.0 | 0.00 | 0.00 | 0.00 | 53 | 1008.5 |
| 20260901115603 | 58 | 142 | 7.0 | 7.0 | 0.00 | 0.00 | 0.00 | 52 | 1008.6 |
| 20260901115103 | 58 | 142 | 6.0 | 7.0 | 0.00 | 0.00 | 0.00 | 52 | 1008.6 |
| 20260901114603 | 59 | 143 | 6.0 | 7.0 | 0.00 | 0.00 | 0.00 | 51 | 1008.4 |
| 20260901114103 | 60 | 145 | 5.0 | 5.0 | 0.00 | 0.00 | 0.00 | 50 | 1008.4 |
| 20260901113102 | 61 | 145 | 7.0 | 9.0 | 0.00 | 0.00 | 0.00 | 48 | 1008.3 |
| 20260901112602 | 61 | 142 | 8.0 | 9.0 | 0.00 | 0.00 | 0.00 | 49 | 1008.2 |
| 20260901112102 | 60 | 139 | 7.0 | 9.0 | 0.00 | 0.00 | 0.00 | 50 | 1008.5 |
| 20260901111603 | 60 | 143 | 7.0 | 9.0 | 0.00 | 0.00 | 0.00 | 49 | 1008.5 |
| 20260901110602 | 59 | 154 | 6.0 | 6.0 | 0.00 | 0.00 | 0.00 | 51 | 1008.6 |
| 20260901110103 | 59 | 161 | 3.0 | 5.0 | 0.00 | 0.00 | 0.00 | 50 | 1008.6 |
| 20260901105103 | 59 | 188 | 3.0 | 3.0 | 0.00 | 0.00 | 0.00 | 50 | 1008.6 |
| 20260901104603 | 60 | 188 | 0.0 | 3.0 | 0.00 | 0.00 | 0.00 | 50 | 1008.4 |
| 20260901104103 | 60 | 188 | 0.0 | 0.0 | 0.00 | 0.00 | 0.00 | 50 | 1008.3 |
| 20260901103103 | 59 | 188 | 0.0 | 0.0 | 0.00 | 0.00 | 0.00 | 52 | 1008.6 |
| 20260901102603 | 58 | 188 | 0.0 | 0.0 | 0.00 | 0.00 | 0.00 | 51 | 1008.7 |
| 20260901101102 | 61 | 188 | 0.0 | 0.0 | 0.00 | 0.00 | 0.00 | 48 | 1008.5 |
| 20260901100603 | 61 | 188 | 0.0 | 0.0 | 0.00 | 0.00 | 0.00 | 48 | 1008.4 |
| 20260901095603 | 60 | 188 | 0.0 | 0.0 | 0.00 | 0.00 | 0.00 | 49 | 1008.6 |
| 20260901095103 | 60 | 188 | 0.0 | 0.0 | 0.00 | 0.00 | 0.00 | 49 | 1008.7 |
| 20260901094603 | 60 | 188 | 0.0 | 0.0 | 0.00 | 0.00 | 0.00 | 49 | 1008.6 |
| 20260901094103 | 60 | 188 | 0.0 | 0.0 | 0.00 | 0.00 | 0.00 | 49 | 1008.6 |
| 20260901093103 | 59 | 188 | 0.0 | 3.0 | 0.00 | 0.00 | 0.00 | 50 | 1008.6 |
| 20260901092603 | 59 | 188 | 1.0 | 3.0 | 0.00 | 0.00 | 0.00 | 50 | 1008.6 |
| 20260901092102 | 59 | 188 | 2.0 | 3.0 | 0.00 | 0.00 | 0.00 | 49 | 1008.7 |
| 20260901091603 | 59 | 188 | 1.0 | 2.0 | 0.00 | 0.00 | 0.00 | 50 | 1008.7 |
| 20260901091103 | 59 | 188 | 2.0 | 3.0 | 0.00 | 0.00 | 0.00 | 49 | 1008.8 |
| 20260901090603 | 59 | 188 | 3.0 | 5.0 | 0.00 | 0.00 | 0.00 | 49 | 1008.9 |
| 20260901085103 | 62 | 142 | 5.0 | 6.0 | 0.00 | 0.00 | 0.00 | 46 | 1008.3 |
| 20260901084603 | 61 | 142 | 6.0 | 9.0 | 0.00 | 0.00 | 0.00 | 47 | 1008.5 |
| 20260901084102 | 60 | 138 | 7.0 | 8.0 | 0.00 | 0.00 | 0.00 | 48 | 1008.6 |
| 20260901083603 | 59 | 138 | 6.0 | 7.0 | 0.00 | 0.00 | 0.00 | 49 | 1008.9 |
| 20260901083103 | 59 | 152 | 3.0 | 3.0 | 0.00 | 0.00 | 0.00 | 49 | 1009.0 |
| 20260901082602 | 59 | 152 | 3.0 | 5.0 | 0.00 | 0.00 | 0.00 | 48 | 1008.9 |
| 20260901082103 | 59 | 152 | 3.0 | 5.0 | 0.00 | 0.00 | 0.00 | 50 | 1009.0 |
| 20260901081603 | 59 | 152 | 3.0 | 5.0 | 0.00 | 0.00 | 0.00 | 48 | 1009.1 |
| 20260901081103 | 59 | 152 | 3.0 | 5.0 | 0.00 | 0.00 | 0.00 | 49 | 1009.3 |
| 20260901080602 | 59 | 152 | 2.0 | 5.0 | 0.00 | 0.00 | 0.00 | 48 | 1009.5 |
| 20260901075603 | 59 | 152 | 5.0 | 6.0 | 0.00 | 0.00 | 0.00 | 48 | 1009.6 |
| 20260901074603 | 59 | 134 | 3.0 | 3.0 | 0.00 | 0.00 | 0.00 | 49 | 1009.6 |
| 20260901074103 | 59 | 134 | 3.0 | 5.0 | 0.00 | 0.00 | 0.00 | 48 | 1009.6 |
| 20260901073603 | 59 | 134 | 2.0 | 3.0 | 0.00 | 0.00 | 0.00 | 47 | 1009.6 |
| 20260901073103 | 59 | 134 | 2.0 | 3.0 | 0.00 | 0.00 | 0.00 | 47 | 1009.7 |
| 20260901072603 | 59 | 134 | 2.0 | 3.0 | 0.00 | 0.00 | 0.00 | 47 | 1009.6 |
| 20260901071603 | 59 | 134 | 2.0 | 3.0 | 0.00 | 0.00 | 0.00 | 46 | 1009.5 |
| 20260901071105 | 60 | 134 | 3.0 | 3.0 | 0.00 | 0.00 | 0.00 | 46 | 1009.6 |
| 20260901070603 | 60 | 134 | 2.0 | 3.0 | 0.00 | 0.00 | 0.00 | 46 | 1009.9 |
| 20260901070103 | 60 | 134 | 2.0 | 3.0 | 0.00 | 0.00 | 0.00 | 46 | 1010.0 |
| 20260901065603 | 60 | 134 | 2.0 | 3.0 | 0.00 | 0.00 | 0.00 | 46 | 1010.0 |
| 20260901064603 | 59 | 134 | 2.0 | 3.0 | 0.00 | 0.00 | 0.00 | 46 | 1010.2 |
| 20260901064103 | 59 | 134 | 2.0 | 3.0 | 0.00 | 0.00 | 0.00 | 46 | 1010.2 |
| 20260901063602 | 60 | 134 | 2.0 | 3.0 | 0.00 | 0.00 | 0.00 | 45 | 1010.2 |
| 20260901063103 | 59 | 134 | 2.0 | 3.0 | 0.00 | 0.00 | 0.00 | 46 | 1010.2 |
| 20260901062603 | 59 | 134 | 2.0 | 3.0 | 0.00 | 0.00 | 0.00 | 46 | 1010.2 |
| 20260901061603 | 60 | 134 | 2.0 | 3.0 | 0.00 | 0.00 | 0.00 | 45 | 1010.3 |
| 20260901061102 | 60 | 134 | 2.0 | 3.0 | 0.00 | 0.00 | 0.00 | 45 | 1010.7 |
| 20260901060603 | 60 | 134 | 3.0 | 3.0 | 0.00 | 0.00 | 0.00 | 45 | 1011.0 |
| 20260901055103 | 60 | 134 | 2.0 | 3.0 | 0.00 | 0.00 | 0.00 | 44 | 1011.0 |
| 20260901054602 | 60 | 134 | 2.0 | 3.0 | 0.00 | 0.00 | 0.00 | 44 | 1011.1 |
| 20260901054102 | 60 | 134 | 2.0 | 3.0 | 0.00 | 0.00 | 0.00 | 43 | 1011.1 |
| 20260901053603 | 61 | 134 | 2.0 | 3.0 | 0.00 | 0.00 | 0.00 | 43 | 1011.0 |
| 20260901053103 | 61 | 134 | 1.0 | 2.0 | 0.00 | 0.00 | 0.00 | 43 | 1011.0 |
| 20260901052103 | 61 | 134 | 3.0 | 3.0 | 0.00 | 0.00 | 0.00 | 42 | 1011.0 |
| 20260901050603 | 62 | 134 | 2.0 | 3.0 | 0.00 | 0.00 | 0.00 | 41 | 1011.7 |
| 20260901050104 | 63 | 134 | 1.0 | 2.0 | 0.00 | 0.00 | 0.00 | 39 | 1011.5 |
| 20260901045603 | 63 | 134 | 0.0 | 2.0 | 0.00 | 0.00 | 0.00 | 39 | 1011.5 |
| 20260901045103 | 63 | 134 | 0.0 | 2.0 | 0.00 | 0.00 | 0.00 | 39 | 1011.5 |
| 20260901044103 | 62 | 134 | 2.0 | 3.0 | 0.00 | 0.00 | 0.00 | 40 | 1011.8 |
| 20260901043603 | 61 | 134 | 2.0 | 3.0 | 0.00 | 0.00 | 0.00 | 41 | 1011.8 |
| 20260901043102 | 61 | 134 | 2.0 | 3.0 | 0.00 | 0.00 | 0.00 | 40 | 1011.9 |
| 20260901042602 | 63 | 127 | 0.0 | 3.0 | 0.00 | 0.00 | 0.00 | 39 | 1011.7 |
| 20260901041603 | 65 | 97 | 0.0 | 0.0 | 0.00 | 0.00 | 0.00 | 37 | 1011.5 |
| 20260901041103 | 66 | 97 | 0.0 | 2.0 | 0.00 | 0.00 | 0.00 | 36 | 1011.6 |
| 20260901040602 | 67 | 97 | 2.0 | 3.0 | 0.00 | 0.00 | 0.00 | 36 | 1011.9 |
| 20260901035603 | 70 | 96 | 1.0 | 3.0 | 0.00 | 0.00 | 0.00 | 33 | 1011.8 |
| 20260901035103 | 71 | 96 | 6.0 | 6.0 | 0.00 | 0.00 | 0.00 | 34 | 1011.4 |
| 20260901034603 | 70 | 100 | 6.0 | 6.0 | 0.00 | 0.00 | 0.00 | 34 | 1011.8 |
| 20260901034103 | 69 | 94 | 4.0 | 6.0 | 0.00 | 0.00 | 0.00 | 34 | 1011.7 |
| 20260901033604 | 68 | 82 | 3.0 | 3.0 | 0.00 | 0.00 | 0.00 | 35 | 1012.0 |
| 20260901032604 | 68 | 59 | 0.0 | 0.0 | 0.00 | 0.00 | 0.00 | 35 | 1012.0 |
| 20260901032103 | 69 | 59 | 0.0 | 0.0 | 0.00 | 0.00 | 0.00 | 34 | 1011.8 |
| 20260901030602 | 71 | 57 | 0.0 | 2.0 | 0.00 | 0.00 | 0.00 | 33 | 1012.0 |
| 20260901025603 | 71 | 56 | 2.0 | 5.0 | 0.00 | 0.00 | 0.00 | 32 | 1011.9 |
| 20260901025103 | 72 | 57 | 2.0 | 5.0 | 0.00 | 0.00 | 0.00 | 32 | 1011.7 |
| 20260901024602 | 72 | 26 | 3.0 | 5.0 | 0.00 | 0.00 | 0.00 | 32 | 1011.7 |
| 20260901024102 | 72 | 34 | 3.0 | 3.0 | 0.00 | 0.00 | 0.00 | 32 | 1011.6 |
| 20260901023603 | 72 | 43 | 2.0 | 3.0 | 0.00 | 0.00 | 0.00 | 32 | 1011.6 |
| 20260901023103 | 73 | 47 | 2.0 | 3.0 | 0.00 | 0.00 | 0.00 | 32 | 1011.6 |
| 20260901022603 | 73 | 61 | 2.0 | 3.0 | 0.00 | 0.00 | 0.00 | 32 | 1011.6 |
| 20260901022103 | 73 | 62 | 3.0 | 6.0 | 0.00 | 0.00 | 0.00 | 32 | 1011.6 |
| 20260901021603 | 73 | 60 | 3.0 | 5.0 | 0.00 | 0.00 | 0.00 | 32 | 1011.7 |
| 20260901021103 | 73 | 67 | 4.0 | 6.0 | 0.00 | 0.00 | 0.00 | 32 | 1011.9 |
| 20260901020603 | 74 | 61 | 2.0 | 3.0 | 0.00 | 0.00 | 0.00 | 32 | 1012.0 |
| 20260901015602 | 75 | 60 | 4.0 | 6.0 | 0.00 | 0.00 | 0.00 | 31 | 1012.0 |
| 20260901015103 | 75 | 48 | 3.0 | 5.0 | 0.00 | 0.00 | 0.00 | 30 | 1012.1 |
| 20260901014604 | 76 | 54 | 3.0 | 6.0 | 0.00 | 0.00 | 0.00 | 30 | 1011.9 |
| 20260901014103 | 76 | 58 | 4.0 | 9.0 | 0.00 | 0.00 | 0.00 | 29 | 1011.9 |
| 20260901013603 | 76 | 68 | 5.0 | 10.0 | 0.00 | 0.00 | 0.00 | 29 | 1011.9 |
| 20260901013103 | 77 | 65 | 5.0 | 7.0 | 0.00 | 0.00 | 0.00 | 29 | 1011.9 |
| 20260901012603 | 77 | 58 | 6.0 | 10.0 | 0.00 | 0.00 | 0.00 | 28 | 1011.8 |
| 20260901012104 | 77 | 56 | 5.0 | 9.0 | 0.00 | 0.00 | 0.00 | 27 | 1011.8 |
| 20260901011603 | 77 | 70 | 5.0 | 7.0 | 0.00 | 0.00 | 0.00 | 27 | 1011.7 |
| 20260901011103 | 78 | 61 | 5.0 | 10.0 | 0.00 | 0.00 | 0.00 | 27 | 1011.8 |
| 20260901010603 | 78 | 64 | 3.0 | 6.0 | 0.00 | 0.00 | 0.00 | 27 | 1012.1 |
| 20260901010103 | 78 | 49 | 3.0 | 7.0 | 0.00 | 0.00 | 0.00 | 27 | 1012.2 |
| 20260901005603 | 78 | 29 | 6.0 | 10.0 | 0.00 | 0.00 | 0.00 | 27 | 1012.2 |
| 20260901005103 | 78 | 52 | 6.0 | 12.0 | 0.00 | 0.00 | 0.00 | 26 | 1012.2 |
| 20260901004603 | 78 | 40 | 7.0 | 10.0 | 0.00 | 0.00 | 0.00 | 26 | 1012.2 |
| 20260901004103 | 78 | 43 | 6.0 | 12.0 | 0.00 | 0.00 | 0.00 | 26 | 1012.2 |
| 20260901003602 | 78 | 34 | 7.0 | 12.0 | 0.00 | 0.00 | 0.00 | 26 | 1012.3 |
| 20260901002603 | 78 | 35 | 6.0 | 10.0 | 0.00 | 0.00 | 0.00 | 26 | 1012.4 |
| 20260901002103 | 78 | 59 | 7.0 | 12.0 | 0.00 | 0.00 | 0.00 | 26 | 1012.4 |
| 20260901001602 | 79 | 63 | 6.0 | 12.0 | 0.00 | 0.00 | 0.00 | 26 | 1012.2 |
| 20260901001103 | 79 | 61 | 6.0 | 12.0 | 0.00 | 0.00 | 0.00 | 26 | 1012.3 |
| 20260901000603 | 79 | 46 | 9.0 | 12.0 | 0.00 | 0.00 | 0.00 | 26 | 1012.3 |
| 20260901000103 | 79 | 34 | 8.0 | 13.0 | 0.00 | 0.00 | 0.00 | 26 | 1012.5 |
| 20260831235603 | 79 | 84 | 10.0 | 13.0 | 0.00 | 0.00 | 0.00 | 26 | 1012.4 |
| 20260831235103 | 79 | 67 | 7.0 | 12.0 | 0.00 | 0.00 | 0.00 | 26 | 1012.5 |
| 20260831234603 | 79 | 18 | 8.0 | 14.0 | 0.00 | 0.00 | 0.00 | 26 | 1012.6 |
| 20260831234103 | 79 | 31 | 8.0 | 14.0 | 0.00 | 0.00 | 0.00 | 26 | 1012.5 |
| 20260831233603 | 79 | 56 | 7.0 | 14.0 | 0.00 | 0.00 | 0.00 | 26 | 1012.6 |
| 20260831233103 | 79 | 54 | 6.0 | 10.0 | 0.00 | 0.00 | 0.00 | 26 | 1012.6 |
| 20260831232602 | 79 | 21 | 5.0 | 12.0 | 0.00 | 0.00 | 0.00 | 27 | 1012.5 |
| 20260831232102 | 79 | 37 | 10.0 | 15.0 | 0.00 | 0.00 | 0.00 | 26 | 1012.6 |
| 20260831230603 | 79 | 10 | 4.0 | 14.0 | 0.00 | 0.00 | 0.00 | 26 | 1013.2 |
| 20260831225103 | 80 | 81 | 5.0 | 10.0 | 0.00 | 0.00 | 0.00 | 26 | 1013.1 |
| 20260831224103 | 80 | 26 | 9.0 | 12.0 | 0.00 | 0.00 | 0.00 | 26 | 1013.3 |
| 20260831223603 | 79 | 54 | 6.0 | 12.0 | 0.00 | 0.00 | 0.00 | 26 | 1013.6 |
| 20260831223103 | 79 | 46 | 8.0 | 15.0 | 0.00 | 0.00 | 0.00 | 27 | 1013.5 |
| 20260831222603 | 80 | 54 | 2.0 | 7.0 | 0.00 | 0.00 | 0.00 | 27 | 1013.4 |
| 20260831222103 | 79 | 19 | 5.0 | 10.0 | 0.00 | 0.00 | 0.00 | 27 | 1013.7 |
| 20260831221602 | 79 | 28 | 5.0 | 12.0 | 0.00 | 0.00 | 0.00 | 27 | 1013.7 |
| 20260831221102 | 79 | 32 | 10.0 | 16.0 | 0.00 | 0.00 | 0.00 | 27 | 1013.8 |
| 20260831220603 | 79 | 22 | 5.0 | 12.0 | 0.00 | 0.00 | 0.00 | 26 | 1013.8 |
| 20260831215103 | 78 | 37 | 6.0 | 12.0 | 0.00 | 0.00 | 0.00 | 27 | 1014.0 |
| 20260831213604 | 77 | 26 | 4.0 | 9.0 | 0.00 | 0.00 | 0.00 | 27 | 1014.3 |
| 20260831213103 | 78 | 62 | 5.0 | 10.0 | 0.00 | 0.00 | 0.00 | 27 | 1014.2 |
| 20260831212603 | 79 | 9 | 3.0 | 8.0 | 0.00 | 0.00 | 0.00 | 27 | 1014.2 |
| 20260831212103 | 79 | 87 | 6.0 | 13.0 | 0.00 | 0.00 | 0.00 | 26 | 1014.2 |
| 20260831211603 | 79 | 335 | 3.0 | 12.0 | 0.00 | 0.00 | 0.00 | 27 | 1014.2 |